PROGRESS-MS 11

Last updated on Tue Jul 30 2019 00:02:10 GMT+0000 (Coordinated Universal Time)

1 44110U 19019A 19209.36461885 .00000444 00000-0 15350-4 0 9992 2 44110 51.6432 156.9726 0006415 187.1862 315.8077 15.51005864 17844
UTC large
Height (km)
Speed (km/s)
/
Latitude / Longitude
Inclination (degrees)
Orbital Period (minutes)
Azimuth
Elevation
Range (km)
Doppler Factor

Next 0 passes for location: London (51.5072 / 0.1276)

Sorry there are no passes over London.